Location: Newark
(52.3500°N, 175.9667°E)
Time: 22:51:25
(UTC+00:00)

Altair - Pass Details

Date: 28 April 2021
Orbit: 1501 x 1683 km, 47.2° (Epoch: 06 May)

Event Time Altitude Azimuth Distance (km) Brightness Sun altitude
Rises 21:38:36 0° 285° (WNW) 4,828 9.7 41.2°
Reaches altitude 10° 21:42:05 10° 277° (W) 3,813 9.3 41.6°
Maximum altitude 21:50:26 35° 217° (SW) 2,314 8.9 42.6°
Drops below altitude 10° 21:58:33 10° 156° (SSE) 3,684 10.4 43.6°
Sets 22:01:51 0° 148° (SSE) 4,647 10.8 43.9°
